Simultaneous Nadir Overpasses (SNOs) Predictions

Prediction of SNOs between NOAA-19 and TERRA Satellite Orbit:

Table of predicted SNOs for the next 14.0 days since TLE Epoch: 9/7/2024
Index Date (NOAA-19) Time (NOAA-19) Lat,Lon (NOAA-19) SZA (NOAA-19 ) Date (TERRA) Time (TERRA) Lat,Lon (TERRA) SZA (TERRA ) Distance(km) Time Diff (sec)
1 09/08/2024 03:08:11 -74.61, -50.86 110.99 09/08/2024 03:08:09 -74.61, -50.87 110.99 0.36 2
2 09/10/2024 06:07:09 -74.10, -96.90 110.68 09/10/2024 06:07:36 -74.09, -96.91 110.68 0.48 27
3 09/10/2024 06:57:45 74.94, 72.73 70.15 09/10/2024 06:56:39 74.94, 72.77 70.16 1.61 66
4 09/12/2024 09:06:08 -73.51,-143.02 110.43 09/12/2024 09:07:03 -73.51,-143.01 110.43 0.37 55
5 09/12/2024 09:56:39 74.58, 27.05 70.61 09/12/2024 09:56:02 74.57, 27.00 70.59 1.92 37
6 09/14/2024 12:55:38 73.96, -19.27 70.82 09/14/2024 12:55:28 73.96, -19.22 70.83 1.55 10
7 09/16/2024 15:54:33 73.50, -65.03 71.21 09/16/2024 15:54:50 73.50, -65.05 71.20 0.50 17
8 09/18/2024 18:53:29 72.98,-110.90 71.53 09/18/2024 18:54:12 72.97,-110.94 71.51 1.86 43
9 09/18/2024 19:44:09 -74.20, 59.33 107.30 09/18/2024 19:43:11 -74.19, 59.27 107.31 2.34 58
10 09/20/2024 21:52:26 72.37,-156.83 71.79 09/20/2024 21:53:34 72.36,-156.89 71.76 2.55 68



Historial Predications of SNOs between NOAA-19 and TERRA
